TIANLIAN 1-O5

导读 | 豆包AI

TIANLIAN 1-05即天链一号05星,是中国抓总研制的第一代中继卫星系统装备星,于2021年7月6日在西昌卫星发射中心由长征三号丙运载火箭送入预定轨道。它将维持系统完整性,保障覆盖率与服务能力,为航天器等提供数据中继、测控传输服务。入网后与其他天链卫星全球组网,标志中国第一代中继卫星圆满收官,使中国成为第二个拥有全球覆盖中继卫星系统的国家。

Basic Information
目录编号:
49011
目录名称:
TIANLIAN 1-O5
国际标识:
2021-063A
轨道中心:
EARTH
卫星名称:
TIANLIAN 1-O5
卫星全名:
--
卫星状态:
在轨 (已飞行1770 天)
发射日期:
2021-07-06 UTC
国别 :
中国 (CN)
星等 :
--
Orbit Information
数据来源 国际轨道数据 AOE轨道数据
星历时间 2026-05-11T22:42:38+0800
6小时前
查看轨道信息
2026-05-11T09:00:00+0800
20小时前
查看轨道信息
半长轴 42164.756km 42164.756km
偏心率 0.0001867 0.0001816
轨道倾角 1.499° 1.498°
近地点辐角 279.361° 276.870°
升交点赤经 80.967° 80.975°
平近点角 106.501° 262.763°
近地点 35778.746km 35778.961km
远地点 35794.492km 35794.277km
周期 1436.098分钟 1436.098分钟
每日圈数 1.002717 1.002717
Detailed Information
使用方式:
暂无
2D Orbit Map
3D Orbit Map
Orbit Altitude Analysis Chart
Orbit Inclination Analysis Chart
Orbit Comprehensive Analysis Chart
View Comprehensive Chart